RH
51 55 55 57 57 57 59 61 60 57 50 48 41 41 43 40 43 47 42 45 61 78 78 60 49 44 47 55 48 41 47 50 48 48 53 57 60 52 55 56 57 59 63
49 55 55 55 54 52 52 55 55 55 37 40 44 40 41 44 37 38 47 47 50 60 72 73 67 59 53 49 50 51 55 60 56 46 57 59 56 63 60 56 57 61 65
51 50 63 53 49 50 52 45 54 48 50 37 35 37 42 40 41 36 47 52 47 45 52 64 69 70 61 56 59 56 62 64 63 60 51 51 54 58 60 59 60 59 63
49 50 66 52 48 45 46 47 47 46 41 36 36 36 41 43 40 40 45 47 48 52 42 45 53 56 59 63 61 67 65 71 70 76 72 62 62 60 57 65 62 60 63
48 50 54 52 42 38 44 42 43 42 42 42 44 42 37 41 38 42 38 38 41 45 50 40 39 44 48 51 59 67 68 68 68 70 75 73 76 78 75 69 65 64 65
46 52 54 54 43 38 43 54 54 50 50 45 43 36 42 41 43 43 40 42 41 39 42 43 42 45 40 40 44 51 55 60 64 67 68 66 70 73 77 82 82 77 77
45 50 51 54 40 38 58 55 52 49 56 43 44 43 42 39 38 42 42 42 38 43 37 37 38 40 39 33 36 39 44 47 50 54 60 63 67 70 79 85 85 83 86
42 44 47 56 45 42 52 53 51 57 48 40 48 52 49 44 41 42 41 37 34 36 30 27 30 32 34 49 38 33 34 34 34 38 41 44 48 53 61 68 73 79 82
36 37 47 44 40 45 59 50 46 45 50 44 46 57 53 50 46 39 39 42 37 37 35 33 34 32 32 33 29 27 25 25 26 28 30 31 30 29 29 30 35 41 46
35 36 40 37 32 48 51 53 47 48 49 48 45 45 51 55 59 59 52 50 46 44 41 42 43 41 38 43 37 35 32 31 29 30 29 28 28 28 27 26 24 22 23
34 35 34 34 34 45 46 46 45 44 46 48 50 50 47 48 47 52 55 55 52 50 50 47 48 49 47 49 51 48 44 41 41 40 38 36 33 31 31 30 29 27 26
36 32 32 30 35 44 44 47 44 42 41 41 46 47 47 48 52 53 52 52 54 57 52 51 52 55 58 60 59 58 54 50 48 44 38 35 32 32 34 34 33 32 30
39 35 27 26 36 40 44 46 44 42 40 40 38 44 47 47 48 48 50 52 53 52 48 50 52 51 54 57 60 58 57 58 58 56 54 51 47 46 44 39 36 34 32
38 36 30 24 33 37 41 43 45 43 41 38 38 39 46 49 50 52 51 55 56 53 52 45 50 53 52 53 56 53 57 57 57 59 63 65 64 66 64 59 53 47 43
37 33 29 23 30 36 38 41 44 42 41 39 40 41 44 49 49 50 53 51 50 49 50 50 48 50 52 54 55 53 52 57 57 61 63 61 63 66 68 70 70 68 66
30 34 28 27 31 36 37 40 43 42 41 41 42 43 43 50 49 53 55 52 47 44 45 49 50 48 47 51 52 52 57 55 58 59 60 63 65 67 72 75 72 71 72
28 32 29 25 30 37 36 38 42 44 41 41 41 43 44 47 50 52 52 51 47 46 45 48 47 45 40 42 50 48 52 56 63 63 61 63 67 71 73 77 76 69 62
27 27 29 27 28 36 38 36 41 44 41 41 41 41 42 45 47 51 50 50 49 52 48 47 48 46 43 45 41 43 51 58 60 63 63 61 58 62 70 75 78 71 62
28 26 26 26 25 30 36 34 37 40 40 39 40 41 43 47 49 53 51 53 54 53 52 50 48 47 45 48 50 48 51 53 57 58 56 56 57 62 69 75 70 67 66
34 28 25 23 23 25 33 33 33 35 38 38 39 42 44 50 52 55 56 54 54 57 58 55 52 46 47 47 49 53 59 55 61 59 60 57 56 58 65 67 64 55 62
39 39 32 24 22 25 27 29 29 31 35 37 38 40 42 47 51 55 61 63 65 65 62 63 60 50 48 51 53 54 51 55 63 57 62 61 60 57 55 52 48 42 39
40 42 40 34 24 21 23 26 28 29 32 33 35 38 43 45 48 51 59 65 65 70 69 66 66 59 54 49 54 54 53 61 60 69 60 60 60 51 48 45 43 38 32
41 40 41 40 31 22 20 19 24 27 28 32 35 40 42 44 45 48 56 63 65 69 70 67 67 62 61 57 55 49 53 58 63 69 52 54 52 43 38 37 31 29 28
40 42 42 42 38 29 24 21 23 30 30 32 34 37 40 42 44 48 52 58 66 69 68 69 69 65 63 59 51 46 51 52 58 58 52 45 41 35 30 28 32 28 27
54 53 54 56 47 36 32 26 24 28 29 31 33 36 39 41 45 46 52 58 66 71 68 75 75 67 61 55 51 50 51 54 60 53 43 36 30 32 31 28 31 28 24
54 55 56 55 55 47 40 39 31 30 34 35 36 38 39 41 45 47 52 62 66 72 71 73 74 62 58 54 54 48 50 51 51 43 35 26 25 28 31 29 26 25 22